This demonstration page uses our WeatherBlox Daily Observations layout. Learn more.

Left ArrowRight Arrow

34.16533, -84.80231

Hourly Observations for November 26, 2020

Temp ( °F °C ) Dew Point ( °F °C ) Humidity (%) Winds ( mph kmh ) Pressure ( in mb ) Visibility ( mi km ) Precip ( " mm )
12:02 am 00:02 Cloudy 63 17.2 60 15.6 90 90 VRB 5 7 30.06 1018 10 16 0.00 0.00
12:09 am 00:09 Cloudy 64 17.8 60 15.6 87 87 VRB 7 11 30.06 1018 10 16 0.00 0.00
12:53 am 00:53 Cloudy 64 17.8 60 15.6 87 87 S 8 13 30.03 1017 10 16 0.01 0.25
1:04 am 01:04 Cloudy 64 17.8 60 15.6 87 87 S 8 13 30.05 1018 10 16 0.00 0.00
1:53 am 01:53 Cloudy with Light Rain 64 17.8 61 16.1 90 90 Calm 30.01 1016 9 14 0.00 0.00
1:58 am 01:58 Cloudy 64 17.8 61 16.1 90 90 Calm 30.03 1017 10 16 0.00 0.00
2:14 am 02:14 Cloudy with Rain 63 17.2 61 16.1 93 93 Calm 30.04 1017 3 4 0.04 1.02
2:24 am 02:24 Cloudy with Light Rain 63 17.2 61 16.1 93 93 Calm 30.04 1017 5 8 0.05 1.27
2:53 am 02:53 Cloudy with Light Rain 63 17.2 61 16.1 93 93 Calm 30.02 1017 3 4 0.11 2.79
3:01 am 03:01 Cloudy with Light Rain 63 17.2 61 16.1 93 93 Calm 30.04 1017 4 6 0.01 0.25
3:13 am 03:13 Cloudy with Light Rain 63 17.2 61 16.1 93 93 Calm 30.04 1017 6 10 0.01 0.25
3:51 am 03:51 Cloudy with Light Rain 63 17 61 16 94 94 Calm 30.04 1017 2 3 0.04 1.02
3:53 am 03:53 Cloudy with Light Rain 63 17.2 61 16.1 93 93 Calm 30.03 1017 2 3 0.04 1.02
4:06 am 04:06 Cloudy with Light Rain 63 17.2 61 16.1 93 93 Calm 30.04 1017 4 6 0.00 0.00
4:37 am 04:37 Cloudy with Mist and Fog 63 17.2 61 16.1 93 93 Calm 30.05 1018 4 6 0.01 0.25
4:51 am 04:51 Cloudy with Light Rain 63 17 61 16 94 94 Calm 30.05 1018 4 6 0.02 0.51
4:53 am 04:53 Cloudy with Light Rain 63 17.2 61 16.1 93 93 Calm 30.03 1017 5 8 0.02 0.51
5:11 am 05:11 Cloudy 63 17.2 60 15.6 90 90 Calm 30.06 1018 9 14 0.00 0.00
5:53 am 05:53 Cloudy with Mist and Fog 62 16.7 60 15.6 93 93 Calm 30.05 1018 6 10 0.00 0.00
6:23 am 06:23 Cloudy 62 16.7 60 15.6 93 93 Calm 30.07 1018 10 16 0.00 0.00
6:49 am 06:49 Cloudy with Mist and Fog 63 17 61 16 94 94 Calm 30.08 1019 6 10 0.00 0.00
6:53 am 06:53 Cloudy 62 16.7 60 15.6 93 93 Calm 30.07 1018 7 11 0.00 0.00
7:53 am 07:53 Cloudy with Mist and Fog 62 16.7 59 15 90 90 Calm 30.08 1019 5 8 0.00 0.00
8:20 am 08:20 Cloudy with Mist and Fog 62 16.7 60 15.6 93 93 Calm 30.11 1020 5 8 0.00 0.00
8:40 am 08:40 Cloudy with Mist and Fog 62 16.7 59 15 90 90 Calm 30.11 1020 5 8 0.00 0.00
8:53 am 08:53 Cloudy with Mist and Fog 62 16.7 59 15 90 90 Calm 30.10 1019 3 5 0.00 0.00
9:11 am 09:11 Cloudy with Mist and Fog 62 16.7 60 15.6 93 93 Calm 30.12 1020 3 4 0.00 0.00
9:18 am 09:18 Cloudy with Mist and Fog 62 16.7 60 15.6 93 93 Calm 30.12 1020 6 10 0.00 0.00
9:38 am 09:38 Cloudy 63 17.2 60 15.6 90 90 Calm 30.12 1020 10 16 0.00 0.00
9:53 am 09:53 Cloudy 64 17.8 60 15.6 87 87 Calm 30.11 1020 10 16 0.00 0.00
10:00 am 10:00 Cloudy 64 17.8 60 15.6 87 87 Calm 30.13 1020 10 16 0.00 0.00
10:44 am 10:44 Cloudy 68 20 61 16.1 78 78 N 5 7 30.12 1020 10 16 0.00 0.00
10:53 am 10:53 Mostly Cloudy 66 18.9 60 15.6 81 81 Calm 30.11 1020 10 16 0.00 0.00
11:13 am 11:13 Mostly Cloudy 68 20 60 15.6 76 76 VRB 3 6 30.12 1020 10 16 0.00 0.00
11:18 am 11:18 Partly Cloudy 67 19.4 60 15.6 79 79 VRB 3 6 30.12 1020 10 16 0.00 0.00
11:53 am 11:53 Partly Cloudy 67 19.4 59 15 76 76 Calm 30.10 1019 10 16 0.00 0.00
12:53 pm 12:53 Sunny 69 20.6 57 13.9 66 66 VRB 3 6 30.07 1018 10 16 0.00 0.00
1:53 pm 13:53 Sunny 71 21.7 54 12.2 55 55 Calm 30.05 1018 10 16 0.00 0.00
2:53 pm 14:53 Sunny 73 22.8 52 11.1 48 48 Calm 30.04 1017 10 16 0.00 0.00
3:53 pm 15:53 Sunny 72 22.2 46 7.8 40 40 Calm 30.03 1017 10 16 0.00 0.00
4:53 pm 16:53 Sunny 67 19.4 43 6.1 42 42 Calm 30.04 1017 10 16 0.00 0.00
5:53 pm 17:53 Clear 58 14.4 46 7.8 65 65 Calm 30.05 1018 10 16 0.00 0.00
6:53 pm 18:53 Clear 55 12.8 46 7.8 72 72 Calm 30.06 1018 10 16 0.00 0.00
7:53 pm 19:53 Clear 51 10.6 47 8.3 86 86 Calm 30.08 1019 10 16 0.00 0.00
8:53 pm 20:53 Clear 48 8.9 45 7.2 89 89 Calm 30.09 1019 10 16 0.00 0.00
9:53 pm 21:53 Clear 47 8.3 44 6.7 90 90 Calm 30.09 1019 10 16 0.00 0.00
10:53 pm 22:53 Clear 46 7.8 43 6.1 89 89 Calm 30.10 1019 10 16 0.00 0.00
11:53 pm 23:53 Clear 44 6.7 42 5.6 93 93 Calm 30.09 1019 9 14 0.00 0.00

Powered by AerisWeather